Weather History for KRPD - February, 2014

Change the Weather History Date:

Tuesday, February 18, 2014

  Actual Average Record
Temperature  
Mean Temperature 22 °F -  
Max Temperature 36 °F - - ()
Min Temperature 9 °F - - ()
Degree Days  
Heating Degree Days 42    
Moisture  
Dew Point 18 °F    
Average Humidity 83    
Maximum Humidity 95    
Minimum Humidity 58    
Precipitation  
Precipitation 0.05 in - - ()
Sea Level Pressure  
Sea Level Pressure 29.63 in    
Wind  
Wind Speed 4 mph (SE)    
Max Wind Speed 10 mph    
Max Gust Speed -    
Visibility 6 miles    
Events Fog    
T = Trace of Precipitation, MM = Missing Value Source: NWS Daily Summary

Daily Weather History Graph

Daily Weather History Graph

Search for Another Location

Airport or City:

Trip Planner

Search our weather history database for the weather conditions in past years. The results will help you decide how hot, cold, wet, or windy it might be!

Date:

Astronomy

Feb. 18, 2014 Rise Set
Actual Time 7:03 AM CST 5:38 PM CST
Civil Twilight 6:33 AM CST 6:09 PM CST
Nautical Twilight 5:59 AM CST 6:43 PM CST
Astronomical Twilight 5:25 AM CST 7:17 PM CST
Moon 9:46 PM CST (2/18) 8:24 AM CST (2/18)
Length of Visible Light 11h 35m
Length of Day
10h 34m
Waning Gibbous, 87% of the Moon is Illuminated
Feb 18
Waning Gibbous
Feb 22
Last Quarter
Mar 1
New
Mar 8
First Quarter
Mar 16
Full

Hourly Weather History & Observations

Time (CST) Temp. Windchill Dew Point Humidity Pressure Visibility Wind Dir Wind Speed Gust Speed Precip Events Conditions
12:15 AM 10.4 °F 4.0 °F 7.7 °F 89% 29.77 in 0.2 mi South 3.5 mph - N/A Fog Light Freezing Fog
12:35 AM 10.9 °F - 7.9 °F 87% 29.78 in 0.5 mi Calm Calm - N/A Fog Light Freezing Fog
12:55 AM 10.4 °F - 7.5 °F 88% 29.78 in 0.5 mi Calm Calm - N/A Fog Light Freezing Fog
1:15 AM 9.9 °F 1.6 °F 7.3 °F 90% 29.76 in 1.5 mi SE 4.6 mph - N/A   Scattered Clouds
1:35 AM 14.0 °F 8.2 °F 12.2 °F 93% 29.76 in 2.5 mi SE 3.5 mph - N/A   Mostly Cloudy
1:55 AM 18.5 °F 10.4 °F 16.9 °F 93% 29.75 in 3.0 mi SE 5.8 mph - N/A   Overcast
2:20 AM 17.6 °F 12.3 °F 15.6 °F 92% 29.74 in 3.0 mi ESE 3.5 mph - N/A   Mostly Cloudy
2:35 AM 16.3 °F 9.2 °F 14.0 °F 90% 29.73 in 2.5 mi ESE 4.6 mph - N/A   Scattered Clouds
2:55 AM 16.5 °F 11.0 °F 14.4 °F 91% 29.72 in 2.5 mi ESE 3.5 mph - N/A   Clear
3:15 AM 16.3 °F 9.2 °F 14.0 °F 90% 29.71 in 2.5 mi ESE 4.6 mph - N/A   Clear
3:35 AM 15.6 °F 7.0 °F 13.3 °F 90% 29.71 in 2.5 mi ESE 5.8 mph - N/A   Clear
3:55 AM 15.6 °F 8.3 °F 13.3 °F 90% 29.69 in 2.5 mi ESE 4.6 mph - N/A   Clear
4:15 AM 15.3 °F 6.6 °F 13.1 °F 91% 29.69 in 2.0 mi ESE 5.8 mph - N/A   Clear
4:35 AM 15.6 °F 7.0 °F 13.5 °F 91% 29.68 in 2.5 mi ESE 5.8 mph - N/A   Clear
4:55 AM 15.6 °F 7.0 °F 13.6 °F 92% 29.67 in 2.0 mi ESE 5.8 mph - N/A   Clear
5:15 AM 16.0 °F 6.3 °F 13.8 °F 91% 29.66 in 2.0 mi ESE 6.9 mph - N/A   Clear
5:35 AM 16.7 °F 7.2 °F 14.7 °F 92% 29.66 in 1.8 mi ESE 6.9 mph - N/A   Mist
5:55 AM 17.2 °F 6.8 °F 15.1 °F 91% 29.64 in 2.0 mi ESE 8.1 mph - N/A   Scattered Clouds
6:15 AM 17.2 °F 7.8 °F 15.1 °F 91% 29.64 in 2.0 mi ESE 6.9 mph - N/A   Clear
6:35 AM 17.2 °F 6.8 °F 15.1 °F 91% 29.63 in 2.5 mi ESE 8.1 mph - N/A   Clear
7:00 AM 17.2 °F 6.8 °F 15.1 °F 91% 29.62 in 2.5 mi ESE 8.1 mph - N/A   Clear
7:15 AM 17.2 °F 7.8 °F 15.3 °F 92% 29.62 in 2.5 mi ESE 6.9 mph - N/A   Clear
7:35 AM 17.6 °F 8.2 °F 15.6 °F 92% 29.62 in 2.5 mi ESE 6.9 mph - N/A   Clear
7:55 AM 18.3 °F 7.3 °F 16.5 °F 93% 29.61 in 3.0 mi ESE 9.2 mph - N/A   Clear
8:15 AM 18.5 °F 8.4 °F 16.7 °F 93% 29.62 in 3.0 mi SE 8.1 mph - N/A   Clear
8:35 AM 19.2 °F 9.3 °F 17.4 °F 93% 29.61 in 3.0 mi SE 8.1 mph - N/A   Clear
8:55 AM 20.1 °F 9.5 °F 18.5 °F 93% 29.60 in 3.0 mi ESE 9.2 mph - N/A   Clear
9:15 AM 20.8 °F 9.7 °F 19.2 °F 93% 29.60 in 4.0 mi SE 10.4 mph - N/A   Clear
9:35 AM 21.7 °F 12.3 °F 20.3 °F 94% 29.59 in 4.0 mi SE 8.1 mph - N/A   Clear
9:55 AM 23.0 °F 13.9 °F 21.7 °F 95% 29.59 in 5.0 mi SE 8.1 mph - N/A   Clear
10:15 AM 23.9 °F 15.8 °F 22.6 °F 95% 29.59 in 5.0 mi SE 6.9 mph - N/A   Clear
10:35 AM 25.7 °F 17.1 °F 22.6 °F 88% 29.59 in 7.0 mi SE 8.1 mph - N/A   Clear
10:55 AM 28.4 °F 20.4 °F 22.3 °F 78% 29.58 in 7.0 mi SE 8.1 mph - N/A   Clear
11:15 AM 29.7 °F 22.0 °F 22.1 °F 73% 29.57 in 10.0 mi SE 8.1 mph - N/A   Clear
11:40 AM 30.2 °F 22.6 °F 22.5 °F 73% 29.57 in 10.0 mi SE 8.1 mph - N/A   Clear
11:55 AM 30.6 °F 23.1 °F 22.1 °F 71% 29.56 in 10.0 mi SE 8.1 mph - N/A   Clear
12:15 PM 30.7 °F 26.0 °F 22.8 °F 72% 29.56 in 10.0 mi SE 4.6 mph - N/A   Clear
12:35 PM 31.6 °F 28.3 °F 22.5 °F 69% 29.56 in 10.0 mi SSE 3.5 mph - N/A   Clear
12:55 PM 32.0 °F - 22.3 °F 67% 29.56 in 10.0 mi Calm Calm - N/A   Clear
1:15 PM 32.9 °F - 22.6 °F 66% 29.56 in 10.0 mi Calm Calm - N/A   Clear
1:35 PM - - - N/A% - - North - - N/A   Unknown
1:55 PM 33.1 °F 28.7 °F 23.9 °F 69% 29.55 in 10.0 mi SE 4.6 mph - 0.05 in   Clear
2:15 PM 33.1 °F 28.7 °F 23.9 °F 69% 29.55 in 10.0 mi SE 4.6 mph - N/A   Clear
2:35 PM 33.4 °F - 23.7 °F 68% 29.55 in 10.0 mi Calm Calm - N/A   Clear
2:55 PM 34.2 °F - 23.0 °F 64% 29.55 in 10.0 mi Calm Calm - N/A   Clear
3:15 PM 35.6 °F - 22.6 °F 59% 29.55 in 10.0 mi Calm Calm - N/A   Mostly Cloudy
3:35 PM 36.0 °F - 23.4 °F 60% 29.56 in 10.0 mi Calm Calm - N/A   Mostly Cloudy
3:55 PM 36.3 °F - 22.6 °F 58% 29.56 in 10.0 mi Calm Calm - N/A   Mostly Cloudy
4:20 PM 34.5 °F - 22.3 °F 61% 29.56 in 10.0 mi Calm Calm - N/A   Clear
4:35 PM 33.8 °F - 22.3 °F 63% 29.57 in 10.0 mi Calm Calm - N/A   Clear
4:55 PM 32.5 °F - 22.1 °F 65% 29.57 in 10.0 mi Calm Calm - N/A   Clear
5:15 PM 32.0 °F - 22.6 °F 68% 29.58 in 10.0 mi Calm Calm - N/A   Scattered Clouds
5:35 PM 28.4 °F - 21.6 °F 76% 29.60 in 10.0 mi Calm Calm - N/A   Mostly Cloudy
5:55 PM 30.4 °F - 22.3 °F 72% 29.60 in 10.0 mi Calm Calm - N/A   Overcast
6:15 PM 27.5 °F - 22.3 °F 81% 29.60 in 10.0 mi Calm Calm - N/A   Mostly Cloudy
6:35 PM 28.2 °F - 22.5 °F 79% 29.61 in 10.0 mi Calm Calm - N/A   Mostly Cloudy
6:55 PM 27.3 °F - 22.3 °F 81% 29.62 in 10.0 mi Calm Calm - N/A   Scattered Clouds
7:15 PM 25.7 °F - 21.2 °F 83% 29.62 in 10.0 mi Calm Calm - N/A   Clear
7:35 PM 25.5 °F - 21.0 °F 83% 29.63 in 10.0 mi Calm Calm - N/A   Clear
7:55 PM 23.0 °F - 19.0 °F 85% 29.63 in 10.0 mi Calm Calm - N/A   Clear
8:15 PM 23.0 °F - 20.3 °F 89% 29.64 in 10.0 mi Calm Calm - N/A   Clear
8:35 PM 21.6 °F - 19.9 °F 93% 29.64 in 7.0 mi Calm Calm - N/A   Clear
9:15 PM 18.3 °F - 16.5 °F 93% 29.67 in 4.0 mi Calm Calm - N/A   Clear
9:35 PM 17.2 °F - 14.9 °F 91% 29.67 in 7.0 mi Calm Calm - N/A   Clear
9:55 PM 17.2 °F 10.2 °F 15.3 °F 92% 29.67 in 5.0 mi West 4.6 mph - N/A   Clear
10:15 PM 19.2 °F 12.5 °F 17.4 °F 93% 29.68 in 10.0 mi West 4.6 mph - N/A   Clear
10:35 PM 20.8 °F 13.2 °F 19.2 °F 93% 29.68 in 10.0 mi West 5.8 mph - N/A   Clear
10:55 PM 20.5 °F 14.0 °F 18.5 °F 92% 29.69 in 10.0 mi WSW 4.6 mph - N/A   Clear
11:15 PM 24.4 °F 16.5 °F 20.7 °F 86% 29.69 in 10.0 mi West 6.9 mph - N/A   Clear
11:35 PM 24.8 °F 19.1 °F 20.7 °F 84% 29.69 in 10.0 mi West 4.6 mph - N/A   Clear
11:55 PM 22.8 °F - 19.0 °F 85% 29.69 in 10.0 mi Calm Calm - N/A   Clear